Tracking 34408 objects as of 14-Jun-2026
HD Live streaming from Space Station
objects crossing your sky now

DSAT

Track DSAT now!
10-day predictions
DSAT is classified as:


NORAD ID: 42794
Int'l Code: 2017-036AF
Perigee: 465.5 km
Apogee: 578.6 km
Inclination: 97.6 °
Period: 94.9 minutes
Semi major axis: 6893 km
RCS: Unknown
Launch date: June 23, 2017
Source: Italy (IT)
Launch site: SRIHARIKOTA (SRI)

Uplink (MHz):
Downlink (MHz): 437.505
Beacon (MHz): 437.505
Mode: 4800bps GMSK CW
Call sign: U1-DSAT-U1
Status: Inactive

Your satellite tracking list
Your tracking list is empty




NASA's NSSDC Master Catalog

Two Line Element Set (TLE):
1 42794U 17036AF  26164.86552134  .00005667  00000-0  26630-3 0  9990
2 42794  97.5551 143.7896 0082083 171.9407 188.3167 15.17006621490352
Source of the keplerian elements: AMSAT